When you browse on this site, cookies collect data to enhance your experience and personalize the content and advertising you see.
Visit our Privacy Policy to learn more. By continuing to use the site, you agree to this use of cookies and data.
  • în România
  • Lista ţărilor
  • Pe 7 zile
  • Temperatura apei
  • Meteo pe hartă
  • Widget-uri
  • user-avatar
    Intrare

    Meteo pe oră la Hobart

    Astăzi, 21 Octombrie, Luni

    Timp Temperatura Precipitaţii Vânt Presiune Umiditate
    00:00 +8°C° 0 mm 2 m/s 751 mmHg 89%
    01:00 +7°C° 0 mm 2 m/s 751 mmHg 92%
    02:00 +7°C° 0 mm 2 m/s 751 mmHg 93%
    03:00 +6°C° 0 mm 2 m/s 752 mmHg 93%
    04:00 +6°C° 0 mm 2 m/s 752 mmHg 93%
    05:00 +7°C° 0 mm 2 m/s 752 mmHg 88%
    06:00 +8°C° 0 mm 2 m/s 753 mmHg 82%
    07:00 +9°C° 0 mm 2 m/s 753 mmHg 77%
    08:00 +13°C° 0 mm 2 m/s 753 mmHg 67%
    09:00 +15°C° 0 mm 2 m/s 753 mmHg 57%
    10:00 +17°C° 0 mm 2 m/s 753 mmHg 48%
    11:00 +18°C° 0 mm 2 m/s 753 mmHg 44%
    12:00 +19°C° 0 mm 2 m/s 753 mmHg 41%
    13:00 +20°C° 0 mm 2 m/s 753 mmHg 37%
    14:00 +20°C° 0 mm 2 m/s 753 mmHg 39%
    15:00 +19°C° 0 mm 2 m/s 752 mmHg 42%
    16:00 +19°C° 0 mm 2 m/s 752 mmHg 44%
    17:00 +16°C° 0 mm 2 m/s 753 mmHg 56%
    18:00 +13°C° 0 mm 2 m/s 753 mmHg 68%
    19:00 +10°C° 0 mm 1 m/s 753 mmHg 80%
    20:00 +9°C° 0 mm 1 m/s 754 mmHg 84%
    21:00 +8°C° 0 mm 1 m/s 754 mmHg 88%
    22:00 +7°C° 0 mm 1 m/s 754 mmHg 91%
    23:00 +7°C° 0 mm 1 m/s 754 mmHg 92%

    Mâine, 22 Octombrie, Marţi

    Timp Temperatura Precipitaţii Vânt Presiune Umiditate
    00:00 +6°C° 0 mm 1 m/s 754 mmHg 93%
    01:00 +5°C° 0 mm 2 m/s 754 mmHg 93%
    02:00 +5°C° 0 mm 1 m/s 754 mmHg 94%
    03:00 +5°C° 0 mm 1 m/s 754 mmHg 94%
    04:00 +5°C° 0 mm 1 m/s 754 mmHg 94%
    05:00 +6°C° 0 mm 1 m/s 754 mmHg 87%
    06:00 +8°C° 0 mm 1 m/s 754 mmHg 80%
    07:00 +9°C° 0 mm 1 m/s 755 mmHg 73%
    08:00 +12°C° 0 mm 1 m/s 754 mmHg 62%
    09:00 +15°C° 0 mm 1 m/s 754 mmHg 52%
    10:00 +19°C° 0 mm 1 m/s 754 mmHg 42%
    11:00 +19°C° 0 mm 2 m/s 754 mmHg 39%
    12:00 +21°C° 0 mm 2 m/s 753 mmHg 37%
    13:00 +23°C° 0 mm 2 m/s 753 mmHg 35%
    14:00 +21°C° 0 mm 2 m/s 752 mmHg 42%
    15:00 +19°C° 0 mm 2 m/s 752 mmHg 48%
    16:00 +18°C° 0 mm 2 m/s 751 mmHg 54%
    17:00 +15°C° 0 mm 2 m/s 751 mmHg 66%
    18:00 +13°C° 0 mm 2 m/s 751 mmHg 77%
    19:00 +9°C° 0 mm 2 m/s 751 mmHg 88%
    20:00 +9°C° 0 mm 2 m/s 751 mmHg 90%
    21:00 +9°C° 0 mm 1 m/s 751 mmHg 92%
    22:00 +8°C° 0 mm 1 m/s 751 mmHg 93%
    23:00 +9°C° 0 mm 1 m/s 751 mmHg 91%

    Poimâine, 23 Octombrie, Miercuri

    Timp Temperatura Precipitaţii Vânt Presiune Umiditate
    00:00 +9°C° 0 mm 1 m/s 751 mmHg 89%
    01:00 +8°C° 0 mm 2 m/s 750 mmHg 87%
    02:00 +8°C° 0 mm 2 m/s 750 mmHg 82%
    03:00 +8°C° 0 mm 2 m/s 749 mmHg 76%
    04:00 +8°C° 0 mm 2 m/s 749 mmHg 71%
    05:00 +9°C° 0 mm 2 m/s 749 mmHg 65%
    06:00 +10°C° 0 mm 2 m/s 749 mmHg 59%
    07:00 +12°C° 0 mm 2 m/s 749 mmHg 53%
    08:00 +15°C° 0 mm 2 m/s 749 mmHg 44%
    09:00 +18°C° 0 mm 2 m/s 749 mmHg 35%
    10:00 +21°C° 0 mm 2 m/s 748 mmHg 25%
    11:00 +21°C° 0 mm 2 m/s 748 mmHg 27%
    12:00 +22°C° 0 mm 3 m/s 748 mmHg 28%
    13:00 +22°C° 0 mm 3 m/s 748 mmHg 30%
    14:00 +22°C° 0 mm 3 m/s 748 mmHg 34%
    15:00 +21°C° 0 mm 3 m/s 747 mmHg 39%
    16:00 +20°C° 0 mm 3 m/s 747 mmHg 43%
    17:00 +17°C° 0 mm 3 m/s 747 mmHg 59%
    18:00 +14°C° 0 mm 2 m/s 748 mmHg 75%
    19:00 +10°C° 0 mm 2 m/s 748 mmHg 90%
    20:00 +11°C° 0 mm 1 m/s 748 mmHg 92%
    21:00 +11°C° 0 mm 1 m/s 748 mmHg 93%
    22:00 +10°C° 0 mm 0 m/s 748 mmHg 94%
    23:00 +11°C° 0 mm 1 m/s 748 mmHg 93%

    24 Octombrie, Joi

    Timp Temperatura Precipitaţii Vânt Presiune Umiditate
    00:00 +11°C° 0 mm 1 m/s 748 mmHg 92%
    01:00 +11°C° 0 mm 1 m/s 748 mmHg 91%
    02:00 +10°C° 0 mm 1 m/s 747 mmHg 92%
    03:00 +10°C° 0 mm 1 m/s 747 mmHg 93%
    04:00 +10°C° 0 mm 1 m/s 747 mmHg 94%
    05:00 +10°C° 0 mm 1 m/s 747 mmHg 89%
    06:00 +10°C° 0 mm 2 m/s 747 mmHg 84%
    07:00 +12°C° 0 mm 2 m/s 746 mmHg 80%
    08:00 +14°C° 0 mm 2 m/s 746 mmHg 70%
    09:00 +17°C° 0 mm 2 m/s 746 mmHg 60%
    10:00 +19°C° 0 mm 2 m/s 746 mmHg 50%
    11:00 +21°C° 0 mm 2 m/s 745 mmHg 45%
    12:00 +24°C° 0 mm 3 m/s 745 mmHg 41%
    13:00 +26°C° 0 mm 3 m/s 744 mmHg 36%
    14:00 +26°C° 0 mm 3 m/s 743 mmHg 37%
    15:00 +26°C° 0 mm 3 m/s 743 mmHg 38%
    16:00 +26°C° 0 mm 3 m/s 742 mmHg 39%
    17:00 +24°C° 0 mm 3 m/s 741 mmHg 47%
    18:00 +21°C° 0 mm 2 m/s 741 mmHg 55%
    19:00 +18°C° 0 mm 2 m/s 741 mmHg 63%
    20:00 +18°C° 0 mm 3 m/s 740 mmHg 62%
    21:00 +17°C° 0 mm 3 m/s 740 mmHg 61%
    22:00 +16°C° 0 mm 3 m/s 739 mmHg 60%
    23:00 +16°C° 0 mm 3 m/s 738 mmHg 59%

    25 Octombrie, Vineri

    Timp Temperatura Precipitaţii Vânt Presiune Umiditate
    00:00 +16°C° 0 mm 3 m/s 737 mmHg 57%
    01:00 +16°C° 0 mm 3 m/s 736 mmHg 56%
    02:00 +16°C° 0 mm 3 m/s 735 mmHg 54%
    03:00 +15°C° 0 mm 4 m/s 734 mmHg 51%
    04:00 +17°C° 0 mm 4 m/s 733 mmHg 49%
    05:00 +18°C° 0 mm 4 m/s 732 mmHg 49%
    06:00 +20°C° 0 mm 4 m/s 732 mmHg 48%
    07:00 +21°C° 0 mm 4 m/s 731 mmHg 47%
    08:00 +22°C° 0 mm 6 m/s 730 mmHg 44%
    09:00 +24°C° 0 mm 7 m/s 730 mmHg 42%
    10:00 +26°C° 0 mm 8 m/s 730 mmHg 39%
    11:00 +23°C° 0 mm 8 m/s 730 mmHg 45%
    12:00 +20°C° 0 mm 7 m/s 731 mmHg 51%
    13:00 +17°C° 0 mm 6 m/s 731 mmHg 57%
    14:00 +16°C° 0.1 mm 6 m/s 731 mmHg 56%
    15:00 +16°C° 0.1 mm 6 m/s 731 mmHg 54%
    16:00 +15°C° 0.1 mm 5 m/s 732 mmHg 53%
    17:00 +13°C° 0 mm 5 m/s 732 mmHg 58%
    18:00 +12°C° 0 mm 4 m/s 732 mmHg 64%
    19:00 +10°C° 0 mm 3 m/s 733 mmHg 69%
    20:00 +9°C° 0 mm 3 m/s 733 mmHg 74%
    21:00 +8°C° 0 mm 3 m/s 733 mmHg 79%
    22:00 +7°C° 0 mm 3 m/s 734 mmHg 85%
    23:00 +7°C° 0 mm 3 m/s 733 mmHg 84%

    26 Octombrie, Sâmbătă

    Timp Temperatura Precipitaţii Vânt Presiune Umiditate
    00:00 +5°C° 0 mm 3 m/s 733 mmHg 84%
    01:00 +6°C° 0 mm 2 m/s 732 mmHg 84%
    02:00 +6°C° 0.1 mm 2 m/s 732 mmHg 85%
    03:00 +6°C° 0.1 mm 2 m/s 732 mmHg 86%
    04:00 +5°C° 0.1 mm 2 m/s 732 mmHg 87%
    05:00 +6°C° 0 mm 2 m/s 732 mmHg 83%
    06:00 +8°C° 0 mm 1 m/s 732 mmHg 80%
    07:00 +9°C° 0 mm 1 m/s 732 mmHg 76%
    08:00 +10°C° 0.1 mm 1 m/s 732 mmHg 71%
    09:00 +10°C° 0.1 mm 2 m/s 733 mmHg 67%
    10:00 +12°C° 0.1 mm 2 m/s 733 mmHg 62%
    11:00 +12°C° 0.8 mm 3 m/s 733 mmHg 65%
    12:00 +12°C° 0.8 mm 3 m/s 733 mmHg 68%
    13:00 +12°C° 0.8 mm 4 m/s 734 mmHg 70%
    14:00 +12°C° 0.6 mm 4 m/s 734 mmHg 67%
    15:00 +12°C° 0.6 mm 4 m/s 735 mmHg 64%
    16:00 +12°C° 0.6 mm 5 m/s 735 mmHg 60%
    17:00 +9°C° 0.1 mm 5 m/s 737 mmHg 65%
    18:00 +7°C° 0.1 mm 4 m/s 738 mmHg 70%
    19:00 +6°C° 0.1 mm 4 m/s 739 mmHg 74%
    20:00 +5°C° 0.1 mm 4 m/s 740 mmHg 79%
    21:00 +5°C° 0.1 mm 4 m/s 740 mmHg 83%
    22:00 +4°C° 0.1 mm 4 m/s 741 mmHg 88%
    23:00 +4°C° 0 mm 4 m/s 742 mmHg 89%
    Arată mai mult